TimeMDT,TemperatureF,Dew PointF,Humidity,Sea Level PressureIn,VisibilityMPH,Wind Direction,Wind SpeedMPH,Gust SpeedMPH,PrecipitationIn,Events,Conditions,WindDirDegrees,DateUTC
12:53 AM,45.0,36.0,71,30.23,10.0,South,3.5,-,N/A,,Clear,170,2013-05-11 06:53:00
1:53 AM,44.1,35.1,71,30.24,10.0,East,4.6,-,N/A,,Clear,100,2013-05-11 07:53:00
2:53 AM,43.0,34.0,71,30.25,10.0,SE,4.6,-,N/A,,Clear,140,2013-05-11 08:53:00
3:53 AM,41.0,34.0,76,30.27,-9999.0,Calm,Calm,-,N/A,,Clear,0,2013-05-11 09:53:00
4:53 AM,41.0,33.1,73,30.27,-9999.0,Calm,Calm,-,N/A,,Clear,0,2013-05-11 10:53:00
5:53 AM,37.9,33.1,83,30.29,-9999.0,Calm,Calm,-,N/A,,Clear,0,2013-05-11 11:53:00
6:53 AM,41.0,34.0,76,30.31,-9999.0,Calm,Calm,-,N/A,,Clear,0,2013-05-11 12:53:00
7:53 AM,46.0,35.1,66,30.30,-9999.0,Calm,Calm,-,N/A,,Clear,0,2013-05-11 13:53:00
8:53 AM,52.0,33.1,49,30.30,10.0,ENE,3.5,-,N/A,,Clear,60,2013-05-11 14:53:00
9:53 AM,55.9,34.0,44,30.29,10.0,NW,4.6,-,N/A,,Clear,310,2013-05-11 15:53:00
10:53 AM,60.1,34.0,38,30.27,10.0,Calm,Calm,-,N/A,,Clear,0,2013-05-11 16:53:00
11:53 AM,66.0,30.0,26,30.24,10.0,Calm,Calm,-,N/A,,Clear,0,2013-05-11 17:53:00
12:53 PM,68.0,28.0,22,30.21,10.0,Variable,4.6,-,N/A,,Clear,0,2013-05-11 18:53:00
1:53 PM,69.1,26.1,20,30.19,10.0,WNW,10.4,-,N/A,,Clear,290,2013-05-11 19:53:00
2:53 PM,72.0,25.0,17,30.16,10.0,Calm,Calm,-,N/A,,Partly Cloudy,0,2013-05-11 20:53:00
3:53 PM,72.0,26.1,18,30.14,10.0,Variable,5.8,18.4,N/A,,Partly Cloudy,0,2013-05-11 21:53:00
4:53 PM,72.0,27.0,19,30.14,10.0,Variable,3.5,18.4,N/A,,Partly Cloudy,0,2013-05-11 22:53:00
5:53 PM,69.1,28.9,22,30.17,10.0,WNW,6.9,-,N/A,,Mostly Cloudy,300,2013-05-11 23:53:00
6:53 PM,68.0,30.0,24,30.15,10.0,SSW,11.5,-,N/A,,Clear,210,2013-05-12 00:53:00
7:53 PM,64.9,32.0,29,30.15,10.0,WSW,3.5,-,N/A,,Clear,240,2013-05-12 01:53:00
8:53 PM,57.9,37.0,46,30.17,10.0,SE,4.6,-,N/A,,Scattered Clouds,130,2013-05-12 02:53:00
10:53 PM,53.1,36.0,52,30.18,10.0,SSE,4.6,-,N/A,,Scattered Clouds,160,2013-05-12 04:53:00
11:53 PM,52.0,37.0,57,30.18,10.0,Calm,Calm,-,N/A,,Partly Cloudy,0,2013-05-12 05:53:00